CW8254 Weather Reports


time (UTC)temp
C
wind
direction
speed
KPH
gust
KPH
rain 1hr
cm
rain 24hr
cm
rain mn
cm
humidity
%
barometer
mb
20260507224235 8 202 0.0 0.0 0.00 0.00 0.00 81 1019.1
20260507223724 8 202 0.0 0.0 0.00 0.00 0.00 80 1019.1
20260507223225 8 202 0.0 0.0 0.00 0.00 0.00 80 1019.1
20260507222747 8 202 0.0 0.0 0.00 0.00 0.00 80 1019.1
20260507222226 8 202 0.0 0.0 0.00 0.00 0.00 79 1019.1
20260507221226 8 202 0.0 0.0 0.00 0.00 0.00 79 1019.1
20260507220725 9 202 0.0 0.0 0.00 0.00 0.00 78 1019.1
20260507220224 9 202 0.0 0.0 0.00 0.00 0.00 78 1019.1
20260507215726 9 202 0.0 0.0 0.00 0.00 0.00 78 1019.1
20260507215224 9 202 0.0 0.0 0.00 0.00 0.00 78 1019.1
20260507214724 9 202 0.0 0.0 0.00 0.00 0.00 78 1019.1
20260507213726 9 202 0.0 0.0 0.00 0.00 0.00 78 1019.1
20260507213225 9 202 0.0 0.0 0.00 0.00 0.00 78 1019.1
20260507212725 9 202 0.0 0.0 0.00 0.00 0.00 78 1019.1
20260507211724 9 202 0.0 0.0 0.00 0.00 0.00 78 1019.1
20260507211224 10 202 0.0 0.0 0.00 0.00 0.00 77 1019.1
20260507210746 10 202 0.0 0.0 0.00 0.00 0.00 77 1019.1
20260507210224 10 202 0.0 0.0 0.00 0.00 0.00 77 1019.1
20260507205725 10 202 0.0 0.0 0.00 0.00 0.00 77 1019.1
20260507205224 10 202 0.0 0.0 0.00 0.00 0.00 76 1019.1
20260507204725 10 202 0.0 0.0 0.00 0.00 0.00 76 1019.1
20260507204225 10 202 0.0 0.0 0.00 0.00 0.00 76 1019.1
20260507203226 10 202 0.0 0.0 0.00 0.00 0.00 75 1019.1
20260507202724 10 202 0.0 1.6 0.00 0.00 0.00 75 1019.1
20260507202254 11 202 0.0 3.2 0.00 0.00 0.00 75 1019.1
20260507201726 11 202 0.0 3.2 0.00 0.00 0.00 74 1019.1
20260507201225 11 202 1.6 3.2 0.00 0.00 0.00 74 1019.1
20260507200724 11 202 0.0 0.0 0.00 0.00 0.00 74 1019.1
20260507200224 11 202 0.0 0.0 0.00 0.00 0.00 73 1019.1
20260507195724 11 202 0.0 0.0 0.00 0.00 0.00 73 1019.1
20260507195225 11 202 0.0 0.0 0.00 0.00 0.00 73 1018.1
20260507194724 11 202 0.0 0.0 0.00 0.00 0.00 73 1018.1
20260507194224 11 202 0.0 0.0 0.00 0.00 0.00 73 1018.1
20260507193725 12 202 0.0 3.2 0.00 0.00 0.00 72 1018.1
20260507192724 12 202 0.0 0.0 0.00 0.00 0.00 71 1018.1
20260507192225 12 158 0.0 1.6 0.00 0.00 0.00 71 1018.1
20260507191725 12 135 0.0 1.6 0.00 0.00 0.00 71 1018.1
20260507191245 12 180 0.0 3.2 0.00 0.00 0.00 71 1018.1
20260507190725 12 158 0.0 3.2 0.00 0.00 0.00 70 1018.1
20260507185225 13 158 1.6 3.2 0.00 0.00 0.00 70 1018.1
20260507184724 13 202 0.0 3.2 0.00 0.00 0.00 70 1018.1
20260507184226 13 135 1.6 3.2 0.00 0.00 0.00 70 1018.1
20260507183724 13 158 0.0 3.2 0.00 0.00 0.00 70 1018.1
20260507183225 13 180 0.0 3.2 0.00 0.00 0.00 70 1018.1
20260507182724 13 270 0.0 3.2 0.00 0.00 0.00 70 1018.1
20260507182225 13 158 1.6 3.2 0.00 0.00 0.00 70 1018.1
20260507181224 13 202 0.0 4.8 0.00 0.00 0.00 70 1018.1
20260507180225 13 0 1.6 4.8 0.00 0.00 0.00 70 1018.1
20260507175725 13 202 1.6 4.8 0.00 0.00 0.00 70 1018.1
20260507174724 13 292 1.6 9.7 0.00 0.00 0.00 70 1018.1
20260507174224 13 0 0.0 9.7 0.00 0.00 0.00 69 1018.1
20260507173726 13 270 1.6 9.7 0.00 0.00 0.00 69 1018.1
20260507173225 13 0 3.2 4.8 0.00 0.00 0.00 69 1018.1
20260507172724 13 202 1.6 6.4 0.00 0.00 0.00 69 1018.1
20260507172224 13 158 1.6 6.4 0.00 0.00 0.00 69 1018.1
20260507171723 13 0 3.2 6.4 0.00 0.00 0.00 69 1018.1
20260507170724 13 0 1.6 6.4 0.00 0.00 0.00 69 1018.1
20260507170226 13 0 1.6 6.4 0.00 0.00 0.00 68 1018.1
20260507165226 13 202 3.2 6.4 0.00 0.00 0.00 68 1018.1
20260507164224 13 0 3.2 6.4 0.00 0.00 0.00 68 1018.1
20260507163819 13 0 3.2 6.4 0.00 0.00 0.00 68 1018.1
20260507163225 13 0 4.8 6.4 0.00 0.00 0.00 67 1018.1
20260507162224 14 202 3.2 6.4 0.00 0.00 0.00 68 1018.1
20260507161724 14 315 1.6 6.4 0.00 0.00 0.00 68 1018.1
20260507161225 14 158 3.2 6.4 0.00 0.00 0.00 68 1018.1
20260507155724 14 248 4.8 9.7 0.00 0.00 0.00 68 1018.1
20260507155224 14 0 0.0 6.4 0.00 0.00 0.00 68 1018.1
20260507154735 14 315 3.2 6.4 0.00 0.00 0.00 68 1018.1
20260507154227 14 202 4.8 6.4 0.00 0.00 0.00 68 1018.1
20260507153724 14 248 1.6 8.0 0.00 0.00 0.00 68 1018.1
20260507153225 14 180 1.6 8.0 0.00 0.00 0.00 68 1018.1
20260507152725 14 270 1.6 8.0 0.00 0.00 0.00 68 1018.1
20260507152225 13 0 3.2 8.0 0.00 0.00 0.00 67 1018.1
20260507151725 13 0 3.2 8.0 0.00 0.00 0.00 67 1018.1
20260507151224 13 0 4.8 9.7 0.00 0.00 0.00 67 1018.1
20260507150724 13 292 3.2 9.7 0.00 0.00 0.00 68 1018.1
20260507150242 13 135 1.6 6.4 0.00 0.00 0.00 68 1018.1
20260507145224 13 202 3.2 4.8 0.00 0.00 0.00 67 1018.1
20260507144726 13 158 1.6 4.8 0.00 0.00 0.00 68 1018.1
20260507144225 13 225 1.6 9.7 0.00 0.00 0.00 67 1018.1
20260507143724 13 202 3.2 9.7 0.00 0.00 0.00 67 1018.1
20260507143224 13 0 3.2 9.7 0.00 0.00 0.00 66 1018.1
20260507142725 13 0 3.2 9.7 0.00 0.00 0.00 65 1018.1
20260507142225 13 0 4.8 8.0 0.00 0.00 0.00 65 1018.1
20260507141725 13 0 3.2 8.0 0.00 0.00 0.00 65 1018.1
20260507141224 13 180 3.2 8.0 0.00 0.00 0.00 64 1018.1
20260507140726 13 202 0.0 8.0 0.00 0.00 0.00 64 1018.1
20260507140226 13 338 4.8 4.8 0.00 0.00 0.00 64 1018.1
20260507135724 14 135 1.6 6.4 0.00 0.00 0.00 63 1018.1
20260507135225 14 202 3.2 8.0 0.00 0.00 0.00 63 1018.1
20260507134738 14 202 1.6 8.0 0.00 0.00 0.00 63 1018.1
20260507134225 14 315 1.6 6.4 0.00 0.00 0.00 62 1018.1
20260507133725 15 248 3.2 6.4 0.00 0.00 0.00 62 1018.1
20260507133224 15 0 3.2 8.0 0.00 0.00 0.00 62 1018.1
20260507132725 15 0 1.6 8.0 0.00 0.00 0.00 61 1018.1
20260507132225 15 292 3.2 8.0 0.00 0.00 0.00 62 1018.1
20260507131725 15 0 3.2 8.0 0.00 0.00 0.00 61 1018.1
20260507130747 15 0 6.4 8.0 0.00 0.00 0.00 62 1018.1
20260507130227 15 292 4.8 6.4 0.00 0.00 0.00 62 1018.1
20260507125725 15 270 3.2 6.4 0.00 0.00 0.00 62 1018.1
20260507125224 15 0 6.4 6.4 0.00 0.00 0.00 62 1018.1
20260507124225 14 292 3.2 9.7 0.00 0.00 0.00 63 1018.1
20260507123725 14 315 4.8 9.7 0.00 0.00 0.00 63 1018.1
20260507122724 14 292 4.8 8.0 0.00 0.00 0.00 62 1018.1
20260507122234 14 338 4.8 8.0 0.00 0.00 0.00 62 1018.1
20260507121725 14 338 6.4 6.4 0.00 0.00 0.00 62 1018.1
20260507120726 14 292 3.2 6.4 0.00 0.00 0.00 61 1018.1
20260507120226 14 292 3.2 6.4 0.00 0.00 0.00 60 1018.1
20260507115724 14 292 3.2 6.4 0.00 0.00 0.00 60 1018.1
20260507115225 14 248 3.2 4.8 0.00 0.00 0.00 59 1018.1
20260507114225 15 248 3.2 6.4 0.00 0.00 0.00 59 1018.1
20260507113724 15 315 1.6 6.4 0.00 0.00 0.00 58 1018.1
20260507113226 15 338 3.2 6.4 0.00 0.00 0.00 58 1018.1
20260507112725 15 0 4.8 9.7 0.00 0.00 0.00 59 1018.1
20260507112225 15 0 3.2 9.7 0.00 0.00 0.00 56 1018.1
20260507111725 16 292 1.6 9.7 0.00 0.00 0.00 58 1018.1
20260507111225 16 292 3.2 6.4 0.00 0.00 0.00 58 1018.1
20260507110725 15 0 3.2 6.4 0.00 0.00 0.00 59 1018.1
20260507110226 15 0 3.2 6.4 0.00 0.00 0.00 58 1018.1
20260507105726 15 0 3.2 4.8 0.00 0.00 0.00 57 1018.1
20260507105224 15 0 0.0 4.8 0.00 0.00 0.00 59 1018.1
20260507104724 15 135 1.6 4.8 0.00 0.00 0.00 60 1018.1
20260507104225 15 338 3.2 3.2 0.00 0.00 0.00 60 1018.1
20260507103725 15 135 3.2 4.8 0.00 0.00 0.00 61 1019.1
20260507103225 15 135 3.2 6.4 0.00 0.00 0.00 59 1019.1
20260507102725 15 270 3.2 6.4 0.00 0.00 0.00 59 1019.1
20260507102224 16 0 3.2 9.7 0.00 0.00 0.00 60 1019.1
20260507101724 16 315 4.8 9.7 0.00 0.00 0.00 59 1019.1
20260507101225 16 202 3.2 9.7 0.00 0.00 0.00 58 1019.1
20260507100724 17 0 4.8 9.7 0.00 0.00 0.00 61 1019.1
20260507095725 17 135 6.4 6.4 0.00 0.00 0.00 60 1019.1
20260507095225 17 338 4.8 8.0 0.00 0.00 0.00 63 1018.1
20260507094724 17 248 3.2 8.0 0.00 0.00 0.00 63 1018.1
20260507094226 16 0 4.8 8.0 0.00 0.00 0.00 65 1018.1
20260507093725 16 0 6.4 6.4 0.00 0.00 0.00 66 1019.1
20260507093225 16 180 1.6 6.4 0.00 0.00 0.00 64 1019.1
20260507092724 16 0 3.2 6.4 0.00 0.00 0.00 65 1019.1
20260507092225 16 202 1.6 6.4 0.00 0.00 0.00 67 1018.1
20260507091224 15 202 3.2 8.0 0.00 0.00 0.00 66 1018.1
20260507090724 15 0 3.2 8.0 0.00 0.00 0.00 69 1018.1
20260507090226 15 135 6.4 6.4 0.00 0.00 0.00 69 1018.1
20260507085724 15 0 3.2 6.4 0.00 0.00 0.00 69 1018.1
20260507085225 15 292 1.6 6.4 0.00 0.00 0.00 70 1018.1
20260507084724 15 0 3.2 6.4 0.00 0.00 0.00 70 1018.1
20260507084224 15 270 1.6 6.4 0.00 0.00 0.00 70 1018.1
20260507083726 15 0 4.8 6.4 0.00 0.00 0.00 70 1018.1
20260507083225 15 0 4.8 6.4 0.00 0.00 0.00 71 1018.1
20260507082224 14 0 3.2 6.4 0.00 0.00 0.00 73 1018.1
20260507081225 14 202 1.6 6.4 0.00 0.00 0.00 74 1018.1
20260507080724 13 202 3.2 6.4 0.00 0.00 0.00 74 1018.1
20260507080225 13 202 3.2 6.4 0.00 0.00 0.00 75 1018.1
20260507075725 13 0 3.2 4.8 0.00 0.00 0.00 76 1018.1
20260507075225 13 248 1.6 4.8 0.00 0.00 0.00 77 1018.1
20260507074725 13 135 3.2 4.8 0.00 0.00 0.00 78 1018.1
20260507074224 13 202 3.2 4.8 0.00 0.00 0.00 79 1018.1
20260507073247 12 202 3.2 3.2 0.00 0.00 0.00 81 1018.1
20260507072724 12 180 1.6 0.0 0.00 0.00 0.00 81 1018.1
20260507072224 12 248 0.0 0.0 0.00 0.00 0.00 82 1018.1
20260507071724 12 338 0.0 0.0 0.00 0.00 0.00 82 1018.1
20260507071224 11 202 0.0 0.0 0.00 0.00 0.00 83 1018.1
20260507070725 11 225 0.0 0.0 0.00 0.00 0.00 83 1018.1
20260507065724 11 202 0.0 0.0 0.00 0.00 0.00 84 1018.1
20260507065224 11 202 0.0 0.0 0.00 0.00 0.00 84 1018.1
20260507064725 11 202 0.0 0.0 0.00 0.00 0.00 85 1018.1
20260507064225 10 225 0.0 0.0 0.00 0.00 0.00 85 1018.1
20260507063724 10 225 0.0 0.0 0.00 0.00 0.00 85 1018.1
20260507062725 10 202 0.0 0.0 0.00 0.00 0.00 85 1018.1
20260507062237 10 202 0.0 0.0 0.00 0.00 0.00 86 1018.1
20260507060724 10 202 0.0 0.0 0.00 0.00 0.00 87 1018.1
20260507060225 10 180 0.0 0.0 0.00 0.00 0.00 87 1018.1
20260507055744 9 180 0.0 0.0 0.00 0.00 0.00 87 1018.1
20260507055231 9 202 0.0 0.0 0.00 0.00 0.00 87 1017.1
20260507054724 9 202 0.0 0.0 0.00 0.00 0.00 87 1017.1
20260507054225 9 202 0.0 0.0 0.00 0.00 0.00 86 1017.1
20260507053724 9 202 0.0 0.0 0.00 0.00 0.00 86 1017.1
20260507053226 8 202 0.0 0.0 0.00 0.00 0.00 86 1017.1
20260507052724 8 202 0.0 0.0 0.00 0.00 0.00 86 1017.1
20260507052245 8 202 0.0 0.0 0.00 0.00 0.00 86 1017.1
20260507051724 8 202 0.0 0.0 0.00 0.00 0.00 87 1017.1
20260507051225 8 202 0.0 0.0 0.00 0.00 0.00 87 1017.1
20260507050724 8 202 0.0 0.0 0.00 0.00 0.00 87 1017.1
20260507045724 8 202 0.0 0.0 0.00 0.00 0.00 86 1017.1
20260507045224 8 202 0.0 0.0 0.00 0.00 0.00 86 1017.1
20260507044724 8 202 0.0 0.0 0.00 0.00 0.00 86 1017.1
20260507044225 8 202 0.0 0.0 0.00 0.00 0.00 86 1017.1
20260507043724 8 202 0.0 0.0 0.00 0.00 0.00 86 1017.1
20260507043224 8 202 0.0 0.0 0.00 0.00 0.00 86 1017.1
20260507042724 8 202 0.0 0.0 0.00 0.00 0.00 86 1017.1
20260507042225 8 202 0.0 0.0 0.00 0.00 0.00 86 1017.1
20260507041724 8 202 0.0 0.0 0.00 0.00 0.00 86 1017.1
20260507041225 8 202 0.0 0.0 0.00 0.00 0.00 86 1017.1
20260507040725 8 202 0.0 0.0 0.00 0.00 0.00 86 1017.1
20260507040224 8 202 0.0 0.0 0.00 0.00 0.00 86 1017.1
20260507035724 8 202 0.0 0.0 0.00 0.00 0.00 86 1017.1
20260507035225 8 202 0.0 0.0 0.00 0.00 0.00 86 1017.1
20260507034724 8 202 0.0 0.0 0.00 0.00 0.00 86 1017.1
20260507034224 8 202 0.0 0.0 0.00 0.00 0.00 86 1017.1
20260507033724 8 202 0.0 0.0 0.00 0.00 0.00 86 1017.1
20260507033224 8 202 0.0 0.0 0.00 0.00 0.00 85 1017.1
20260507032725 8 202 0.0 0.0 0.00 0.00 0.00 85 1017.1
20260507032225 8 202 0.0 0.0 0.00 0.00 0.00 85 1017.1
20260507031725 8 202 0.0 0.0 0.00 0.00 0.00 85 1017.1
20260507031224 8 202 0.0 0.0 0.00 0.00 0.00 85 1017.1
20260507030724 8 202 0.0 0.0 0.00 0.00 0.00 85 1017.1
20260507030224 8 202 0.0 0.0 0.00 0.00 0.00 85 1017.1
20260507025724 8 202 0.0 0.0 0.00 0.00 0.00 85 1017.1
20260507025224 8 202 0.0 0.0 0.00 0.00 0.00 85 1017.1
20260507024725 8 202 0.0 0.0 0.00 0.00 0.00 85 1017.1
20260507024225 8 202 0.0 0.0 0.00 0.00 0.00 85 1017.1
20260507023724 8 202 0.0 0.0 0.00 0.00 0.00 85 1017.1
20260507023224 8 202 0.0 0.0 0.00 0.00 0.00 85 1017.1
20260507022724 8 202 0.0 0.0 0.00 0.00 0.00 85 1017.1
20260507022225 8 202 0.0 0.0 0.00 0.00 0.00 84 1017.1
20260507021724 8 202 0.0 0.0 0.00 0.00 0.00 84 1017.1
20260507021235 8 202 0.0 0.0 0.00 0.00 0.00 84 1017.1
20260507020726 8 202 0.0 0.0 0.00 0.00 0.00 84 1017.1
20260507020225 8 202 0.0 0.0 0.00 0.00 0.00 84 1017.1
20260507015725 8 202 0.0 0.0 0.00 0.00 0.00 84 1017.1
20260507015224 8 202 0.0 0.0 0.00 0.00 0.00 83 1017.1
20260507014725 8 202 0.0 0.0 0.00 0.00 0.00 84 1017.1
20260507013724 8 202 0.0 0.0 0.00 0.00 0.00 83 1017.1
20260507013225 8 202 0.0 0.0 0.00 0.00 0.00 83 1017.1
20260507012725 9 202 0.0 0.0 0.00 0.00 0.00 83 1017.1
20260507011724 9 202 0.0 0.0 0.00 0.00 0.00 83 1017.1
20260507011226 9 202 0.0 0.0 0.00 0.00 0.00 83 1017.1
20260507010224 9 202 0.0 0.0 0.00 0.00 0.00 83 1017.1
20260507005726 9 202 0.0 0.0 0.00 0.00 0.00 83 1017.1
20260507004725 9 202 0.0 0.0 0.00 0.00 0.00 83 1017.1
20260507004224 9 202 0.0 0.0 0.00 0.00 0.00 82 1017.1
20260507003725 9 202 0.0 0.0 0.00 0.00 0.00 82 1017.1
20260507003225 9 202 0.0 0.0 0.00 0.00 0.00 82 1017.1
20260507002226 9 202 0.0 0.0 0.00 0.00 0.00 82 1017.1
20260507001725 9 202 0.0 0.0 0.00 0.00 0.00 82 1017.1
20260507001224 9 202 0.0 0.0 0.00 0.00 0.00 82 1017.1
20260507000725 9 202 0.0 0.0 0.00 0.00 0.00 82 1017.1
20260507000226 9 202 0.0 0.0 0.00 0.00 0.00 81 1017.1
20260506235724 9 202 0.0 0.0 0.00 0.00 0.00 81 1017.1
20260506235226 9 202 0.0 3.2 0.00 0.00 0.00 81 1017.1
20260506233725 9 202 1.6 3.2 0.00 0.00 0.00 81 1017.1
20260506233237 9 0.0 0.0 0.00 0.00 0.00 81 1017.1
20260506232735 10 202 0.0 0.0 0.00 0.00 0.00 80 1017.1
20260506232234 10 202 0.0 0.0 0.00 0.00 0.00 80 1017.1
20260506231724 10 202 0.0 0.0 0.00 0.00 0.00 80 1017.1
20260506231224 10 202 0.0 0.0 0.00 0.00 0.00 80 1017.1
20260506230725 10 202 0.0 0.0 0.00 0.00 0.00 80 1017.1
20260506230225 10 202 0.0 0.0 0.00 0.00 0.00 80 1017.1
20260506225724 10 202 0.0 0.0 0.00 0.00 0.00 79 1017.1
20260506225225 10 202 0.0 0.0 0.00 0.00 0.00 79 1017.1
20260506224724 10 202 0.0 0.0 0.00 0.00 0.00 79 1017.1